EXS41TY EGGP-LEIB

Flight info

Callsign EXS41TY
Flight time 2h 25m
Altitude 36000
Route REXAM N42 MIDJO P17 BEPHE DCT OSSEP DCT ELNIF DCT ZESPE DCT KLAKI DCT MANIG/N0445F370 DCT BADUR DCT KORER UM616 TUPAR DCT CNA DCT SECHE DCT AGN DCT TOU DCT LOMRA DCT ROCAN DCT PUMAL DCT XEPLA DCT BCN Z174 CORDA
Aircraft B738/M-SDE2E3FGHIRWXY/LB1

Departure

Time 2026-05-05 14:46
Airport Liverpool John Lennon Airport (EGGP)

Arrival

Time 2026-05-05 17:11
Airport Ibiza Airport (LEIB)
Time Latitude Longitude Altitude Speed Heading
2026-05-05 14:33 53.33659 -2.85586 85 ft 0 kts 356°
2026-05-05 14:37 53.33647 -2.85585 89 ft 4 kts 356°
2026-05-05 14:38 53.33623 -2.85589 88 ft 4 kts 36°
2026-05-05 14:38 53.33609 -2.85622 90 ft 4 kts 81°
2026-05-05 14:38 53.33608 -2.85631 90 ft 1 kts 83°
2026-05-05 14:40 53.33608 -2.85630 84 ft 1 kts 83°
2026-05-05 14:41 53.33610 -2.85600 87 ft 4 kts 85°
2026-05-05 14:41 53.33605 -2.85537 86 ft 6 kts 122°
2026-05-05 14:41 53.33568 -2.85510 89 ft 6 kts 174°
2026-05-05 14:41 53.33527 -2.85502 87 ft 6 kts 162°
2026-05-05 14:42 53.33508 -2.85437 84 ft 8 kts 89°
2026-05-05 14:42 53.33514 -2.85298 83 ft 15 kts 85°
2026-05-05 14:42 53.33522 -2.85118 85 ft 15 kts 85°
2026-05-05 14:42 53.33531 -2.84943 83 ft 15 kts 86°
2026-05-05 14:43 53.33539 -2.84767 84 ft 17 kts 85°
2026-05-05 14:43 53.33550 -2.84534 78 ft 22 kts 85°
2026-05-05 14:43 53.33562 -2.84270 74 ft 22 kts 85°
2026-05-05 14:43 53.33573 -2.84013 70 ft 22 kts 86°
2026-05-05 14:44 53.33585 -2.83764 75 ft 20 kts 85°
2026-05-05 14:44 53.33593 -2.83585 84 ft 14 kts 85°
2026-05-05 14:44 53.33599 -2.83442 89 ft 10 kts 88°
2026-05-05 14:44 53.33575 -2.83333 88 ft 10 kts 136°
2026-05-05 14:45 53.33508 -2.83297 84 ft 12 kts 175°
2026-05-05 14:45 53.33451 -2.83295 81 ft 7 kts 204°
2026-05-05 14:45 53.33438 -2.83374 85 ft 9 kts 265°
2026-05-05 14:45 53.33426 -2.83619 72 ft 49 kts 266°
2026-05-05 14:46 53.33381 -2.84608 66 ft 119 kts 265°
2026-05-05 14:46 53.33306 -2.86316 146 ft 169 kts 268°
2026-05-05 14:46 53.33228 -2.88256 1039 ft 164 kts 270°
2026-05-05 14:46 53.33153 -2.90150 1874 ft 168 kts 269°
2026-05-05 14:47 53.33029 -2.92240 2300 ft 197 kts 267°
2026-05-05 14:47 53.32877 -2.94629 2700 ft 212 kts 267°
2026-05-05 14:47 53.32720 -2.97121 3247 ft 223 kts 267°
2026-05-05 14:47 53.32552 -2.99866 3501 ft 251 kts 267°
2026-05-05 14:48 53.32372 -3.02831 4182 ft 261 kts 266°
2026-05-05 14:48 53.32184 -3.05888 4994 ft 267 kts 265°
2026-05-05 14:48 53.31995 -3.08996 5850 ft 268 kts 266°
2026-05-05 14:48 53.31608 -3.12032 6741 ft 272 kts 244°
2026-05-05 14:49 53.30299 -3.14324 7477 ft 281 kts 210°
2026-05-05 14:49 53.29069 -3.15012 7953 ft 286 kts 187°
2026-05-05 14:49 53.27067 -3.15034 8716 ft 290 kts 179°
2026-05-05 14:49 53.25034 -3.14924 9459 ft 295 kts 180°
2026-05-05 14:50 53.22983 -3.14891 10260 ft 295 kts 181°
2026-05-05 14:50 53.20873 -3.14951 10635 ft 314 kts 183°
2026-05-05 14:50 53.18610 -3.15093 10849 ft 336 kts 184°
2026-05-05 14:50 53.16229 -3.15274 11308 ft 348 kts 185°
2026-05-05 14:51 53.13797 -3.15467 12049 ft 350 kts 185°
2026-05-05 14:51 53.11356 -3.15654 12798 ft 353 kts 185°
2026-05-05 14:51 53.08890 -3.15828 13521 ft 357 kts 182°
2026-05-05 14:51 53.06421 -3.15138 14175 ft 365 kts 159°
2026-05-05 14:52 53.04243 -3.12983 14921 ft 367 kts 143°
2026-05-05 14:52 53.02247 -3.10317 15545 ft 371 kts 142°
2026-05-05 14:52 53.00235 -3.07572 16148 ft 376 kts 142°
2026-05-05 14:52 52.98189 -3.04828 16753 ft 380 kts 143°
2026-05-05 14:53 52.96109 -3.02087 17359 ft 384 kts 143°
2026-05-05 14:53 52.94014 -2.99345 18095 ft 384 kts 143°
2026-05-05 14:53 52.91909 -2.96593 18668 ft 387 kts 144°
2026-05-05 14:53 52.89785 -2.93818 19197 ft 390 kts 144°
2026-05-05 14:54 52.87646 -2.91023 19758 ft 393 kts 144°
2026-05-05 14:54 52.85494 -2.88215 20308 ft 395 kts 144°
2026-05-05 14:54 52.83330 -2.85396 20852 ft 398 kts 144°
2026-05-05 14:54 52.81078 -2.82727 21380 ft 398 kts 153°
2026-05-05 14:55 52.78581 -2.80785 21909 ft 397 kts 163°
2026-05-05 14:55 52.75929 -2.79586 22429 ft 396 kts 173°
2026-05-05 14:55 52.73202 -2.78885 22960 ft 397 kts 174°
2026-05-05 14:55 52.70466 -2.78202 23508 ft 399 kts 174°
2026-05-05 14:56 52.67708 -2.77506 23958 ft 401 kts 174°
2026-05-05 14:56 52.64942 -2.76789 24341 ft 404 kts 173°
2026-05-05 14:56 52.62153 -2.76070 24697 ft 407 kts 174°
2026-05-05 14:56 52.59323 -2.75819 25053 ft 408 kts 184°
2026-05-05 14:57 52.56485 -2.76129 25443 ft 410 kts 186°
2026-05-05 14:57 52.53632 -2.76445 25801 ft 413 kts 185°
2026-05-05 14:57 52.50757 -2.76720 26166 ft 415 kts 185°
2026-05-05 14:57 52.47902 -2.76972 26539 ft 417 kts 184°
2026-05-05 14:58 52.44968 -2.77224 26974 ft 418 kts 184°
2026-05-05 14:58 52.42092 -2.77469 27282 ft 421 kts 184°
2026-05-05 14:58 52.39155 -2.77719 27631 ft 423 kts 184°
2026-05-05 14:58 52.36218 -2.77971 28023 ft 424 kts 184°
2026-05-05 14:59 52.33255 -2.78225 28325 ft 427 kts 184°
2026-05-05 14:59 52.30276 -2.78481 28592 ft 431 kts 184°
2026-05-05 14:59 52.27274 -2.78739 28950 ft 432 kts 184°
2026-05-05 14:59 52.24277 -2.78996 29355 ft 432 kts 184°
2026-05-05 15:00 52.21274 -2.79253 29701 ft 433 kts 184°
2026-05-05 15:00 52.19237 -2.79428 29875 ft 435 kts 184°
2026-05-05 15:00 52.15225 -2.79771 30224 ft 437 kts 184°
2026-05-05 15:00 52.12188 -2.80030 30555 ft 436 kts 184°
2026-05-05 15:01 52.09160 -2.80288 30908 ft 435 kts 184°
2026-05-05 15:01 52.06135 -2.80545 31194 ft 436 kts 184°
2026-05-05 15:01 52.03104 -2.80804 31484 ft 436 kts 184°
2026-05-05 15:01 52.00082 -2.81061 31829 ft 435 kts 184°
2026-05-05 15:02 51.97065 -2.81317 32219 ft 432 kts 184°
2026-05-05 15:02 51.94061 -2.81573 32502 ft 433 kts 184°
2026-05-05 15:02 51.91052 -2.81829 32765 ft 434 kts 184°
2026-05-05 15:02 51.88043 -2.82084 33113 ft 432 kts 184°
2026-05-05 15:03 51.85045 -2.82364 33409 ft 432 kts 186°
2026-05-05 15:03 51.82052 -2.82893 33597 ft 433 kts 188°
2026-05-05 15:03 51.79068 -2.83545 33903 ft 432 kts 189°
2026-05-05 15:03 51.76098 -2.84225 34272 ft 429 kts 189°
2026-05-05 15:04 51.73156 -2.84892 34532 ft 428 kts 188°
2026-05-05 15:04 51.70189 -2.85546 34616 ft 431 kts 188°
2026-05-05 15:04 51.67214 -2.86186 34866 ft 430 kts 188°
2026-05-05 15:04 51.64252 -2.86814 35154 ft 429 kts 188°
2026-05-05 15:05 51.58303 -2.88067 35412 ft 432 kts 188°
2026-05-05 15:05 51.55373 -2.88683 35718 ft 429 kts 188°
2026-05-05 15:05 51.52414 -2.89309 35861 ft 431 kts 188°
2026-05-05 15:06 51.49432 -2.89941 35970 ft 433 kts 188°
2026-05-05 15:06 51.43421 -2.91216 35996 ft 438 kts 188°
2026-05-05 15:07 51.37370 -2.92495 35997 ft 440 kts 188°
2026-05-05 15:07 51.31286 -2.93778 35994 ft 441 kts 188°
2026-05-05 15:08 51.25199 -2.95057 35988 ft 439 kts 188°
2026-05-05 15:08 51.19221 -2.96309 35978 ft 429 kts 188°
2026-05-05 15:09 51.13297 -2.97548 35994 ft 429 kts 188°
2026-05-05 15:09 51.07372 -2.98783 35986 ft 430 kts 187°
2026-05-05 15:10 51.01436 -3.00018 35986 ft 431 kts 188°
2026-05-05 15:10 50.95491 -3.01252 35977 ft 432 kts 187°
2026-05-05 15:11 50.89523 -3.02486 35993 ft 432 kts 188°
2026-05-05 15:11 50.83547 -3.03720 35981 ft 434 kts 187°
2026-05-05 15:12 50.77557 -3.04953 35991 ft 434 kts 187°
2026-05-05 15:12 50.71552 -3.06186 35977 ft 435 kts 187°
2026-05-05 15:13 50.65550 -3.07415 35983 ft 435 kts 187°
2026-05-05 15:13 50.59578 -3.08635 35969 ft 436 kts 187°
2026-05-05 15:14 50.53565 -3.09860 35968 ft 436 kts 187°
2026-05-05 15:14 50.47551 -3.11082 35969 ft 436 kts 187°
2026-05-05 15:15 50.41538 -3.12302 35968 ft 436 kts 187°
2026-05-05 15:15 50.35520 -3.13526 35967 ft 436 kts 188°
2026-05-05 15:16 50.29460 -3.14847 35971 ft 437 kts 188°
2026-05-05 15:16 50.23436 -3.16179 35974 ft 437 kts 188°
2026-05-05 15:17 50.17411 -3.17499 35965 ft 438 kts 188°
2026-05-05 15:17 50.11411 -3.18804 35968 ft 438 kts 188°
2026-05-05 15:18 50.05323 -3.20124 35971 ft 439 kts 188°
2026-05-05 15:18 49.99312 -3.21423 35976 ft 440 kts 188°
2026-05-05 15:19 49.93245 -3.22732 35971 ft 440 kts 188°
2026-05-05 15:19 49.87175 -3.24039 35969 ft 441 kts 188°
2026-05-05 15:20 49.81090 -3.25341 35968 ft 442 kts 187°
2026-05-05 15:20 49.74929 -3.25051 35975 ft 442 kts 169°
2026-05-05 15:21 49.68935 -3.23231 35970 ft 442 kts 168°
2026-05-05 15:21 49.62900 -3.21379 35969 ft 443 kts 169°
2026-05-05 15:22 49.56840 -3.19580 35961 ft 443 kts 169°
2026-05-05 15:22 49.50785 -3.17819 35965 ft 443 kts 169°
2026-05-05 15:23 49.44729 -3.16068 35960 ft 443 kts 169°
2026-05-05 15:23 49.38664 -3.14319 35970 ft 443 kts 169°
2026-05-05 15:24 49.32609 -3.12575 35963 ft 444 kts 169°
2026-05-05 15:24 49.26535 -3.10830 35967 ft 444 kts 169°
2026-05-05 15:25 49.20467 -3.09091 35973 ft 443 kts 169°
2026-05-05 15:25 49.14449 -3.07371 35954 ft 436 kts 169°
2026-05-05 15:26 49.08529 -3.05683 35961 ft 432 kts 169°
2026-05-05 15:26 49.02620 -3.04002 35977 ft 432 kts 168°
2026-05-05 15:27 48.96716 -3.02326 35974 ft 431 kts 168°
2026-05-05 15:27 48.90821 -3.00657 35961 ft 431 kts 169°
2026-05-05 15:28 48.84926 -2.98991 35963 ft 431 kts 168°
2026-05-05 15:28 48.79032 -2.97330 35967 ft 431 kts 168°
2026-05-05 15:29 48.73134 -2.95672 35959 ft 431 kts 169°
2026-05-05 15:29 48.67321 -2.93519 35963 ft 430 kts 158°
2026-05-05 15:30 48.62152 -2.89022 35983 ft 430 kts 144°
2026-05-05 15:30 48.57286 -2.83734 35979 ft 431 kts 144°
2026-05-05 15:31 48.52405 -2.78452 35945 ft 432 kts 144°
2026-05-05 15:31 48.47500 -2.73210 35941 ft 433 kts 144°
2026-05-05 15:32 48.42576 -2.67986 35938 ft 433 kts 145°
2026-05-05 15:32 48.37649 -2.62777 35948 ft 433 kts 145°
2026-05-05 15:33 48.32715 -2.57573 35940 ft 433 kts 145°
2026-05-05 15:33 48.27784 -2.52385 35943 ft 433 kts 145°
2026-05-05 15:34 48.22845 -2.47200 35937 ft 433 kts 145°
2026-05-05 15:34 48.18746 -2.42905 35937 ft 432 kts 145°
2026-05-05 15:35 48.13018 -2.36920 35919 ft 431 kts 145°
2026-05-05 15:35 48.08115 -2.31808 35918 ft 428 kts 145°
2026-05-05 15:36 48.04026 -2.27555 35921 ft 427 kts 145°
2026-05-05 15:36 47.99159 -2.22503 35931 ft 425 kts 145°
2026-05-05 15:37 47.94303 -2.17475 35915 ft 425 kts 145°
2026-05-05 15:37 47.89455 -2.12467 35920 ft 424 kts 145°
2026-05-05 15:38 47.84605 -2.07468 35913 ft 424 kts 145°
2026-05-05 15:38 47.79779 -2.02505 35922 ft 425 kts 145°
2026-05-05 15:39 47.74859 -1.97458 35912 ft 429 kts 145°
2026-05-05 15:39 47.69965 -1.92449 35909 ft 432 kts 145°
2026-05-05 15:40 47.65001 -1.87379 35898 ft 434 kts 145°
2026-05-05 15:40 47.60025 -1.82310 35890 ft 434 kts 145°
2026-05-05 15:41 47.55045 -1.77249 35890 ft 434 kts 145°
2026-05-05 15:41 47.50057 -1.72192 35885 ft 435 kts 145°
2026-05-05 15:42 47.45071 -1.67147 35876 ft 434 kts 145°
2026-05-05 15:42 47.40098 -1.62129 35882 ft 432 kts 145°
2026-05-05 15:43 47.35121 -1.57117 35879 ft 434 kts 145°
2026-05-05 15:43 47.30133 -1.52106 35877 ft 433 kts 145°
2026-05-05 15:44 47.25160 -1.47122 35882 ft 432 kts 145°
2026-05-05 15:44 47.20195 -1.42158 35882 ft 431 kts 145°
2026-05-05 15:45 47.15239 -1.37213 35880 ft 431 kts 146°
2026-05-05 15:45 47.10274 -1.32272 35877 ft 431 kts 146°
2026-05-05 15:46 47.05308 -1.27339 35876 ft 431 kts 146°
2026-05-05 15:46 47.00336 -1.22413 35870 ft 432 kts 146°
2026-05-05 15:47 46.95356 -1.17493 35882 ft 432 kts 146°
2026-05-05 15:47 46.90391 -1.12597 35868 ft 433 kts 146°
2026-05-05 15:48 46.85390 -1.07672 35875 ft 434 kts 146°
2026-05-05 15:48 46.80379 -1.02753 35877 ft 434 kts 146°
2026-05-05 15:49 46.75359 -0.97836 35871 ft 435 kts 146°
2026-05-05 15:49 46.70330 -0.92920 35871 ft 435 kts 146°
2026-05-05 15:50 46.65295 -0.88010 35873 ft 436 kts 146°
2026-05-05 15:50 46.60249 -0.83100 35867 ft 437 kts 146°
2026-05-05 15:51 46.55199 -0.78195 35872 ft 436 kts 147°
2026-05-05 15:51 46.50155 -0.73310 35864 ft 435 kts 147°
2026-05-05 15:52 46.45092 -0.68539 35868 ft 432 kts 152°
2026-05-05 15:52 46.39789 -0.64513 35882 ft 429 kts 154°
2026-05-05 15:53 46.34463 -0.60652 35872 ft 427 kts 154°
2026-05-05 15:53 46.29164 -0.56769 35868 ft 428 kts 154°
2026-05-05 15:54 46.23827 -0.52816 35891 ft 434 kts 154°
2026-05-05 15:54 46.18445 -0.48818 35877 ft 435 kts 154°
2026-05-05 15:55 46.13064 -0.44824 35879 ft 435 kts 154°
2026-05-05 15:55 46.07678 -0.40837 35885 ft 436 kts 154°
2026-05-05 15:56 46.02324 -0.36883 35886 ft 435 kts 154°
2026-05-05 15:56 45.96936 -0.32914 35881 ft 435 kts 154°
2026-05-05 15:57 45.91554 -0.28957 35882 ft 434 kts 154°
2026-05-05 15:57 45.86189 -0.25021 35885 ft 433 kts 154°
2026-05-05 15:58 45.80826 -0.21096 35897 ft 432 kts 154°
2026-05-05 15:58 45.75467 -0.17182 35892 ft 432 kts 154°
2026-05-05 15:59 45.70104 -0.13274 35923 ft 433 kts 155°
2026-05-05 15:59 45.64734 -0.09369 35906 ft 433 kts 154°
2026-05-05 16:00 45.59367 -0.05474 35912 ft 432 kts 154°
2026-05-05 16:00 45.54002 -0.01590 35903 ft 432 kts 154°
2026-05-05 16:01 45.48631 0.02291 35910 ft 434 kts 155°
2026-05-05 16:01 45.43244 0.06174 35919 ft 435 kts 155°
2026-05-05 16:02 45.37834 0.10066 35921 ft 436 kts 155°
2026-05-05 16:02 45.32411 0.13958 35919 ft 437 kts 155°
2026-05-05 16:03 45.26972 0.17854 35920 ft 439 kts 155°
2026-05-05 16:03 45.21515 0.21754 35920 ft 440 kts 155°
2026-05-05 16:04 45.16042 0.25658 35921 ft 440 kts 155°
2026-05-05 16:04 45.10567 0.29554 35932 ft 441 kts 155°
2026-05-05 16:05 45.05086 0.33447 35940 ft 441 kts 155°
2026-05-05 16:05 44.99591 0.37340 35926 ft 442 kts 155°
2026-05-05 16:06 44.94137 0.41197 35935 ft 440 kts 156°
2026-05-05 16:06 44.88666 0.45057 35939 ft 439 kts 156°
2026-05-05 16:07 44.83205 0.48902 35938 ft 438 kts 156°
2026-05-05 16:07 44.77758 0.52729 35939 ft 437 kts 156°
2026-05-05 16:08 44.72326 0.56537 35940 ft 436 kts 156°
2026-05-05 16:08 44.66907 0.60328 35939 ft 435 kts 156°
2026-05-05 16:09 44.61490 0.64110 35938 ft 435 kts 156°
2026-05-05 16:09 44.56070 0.67885 35940 ft 435 kts 156°
2026-05-05 16:10 44.50643 0.71658 35932 ft 435 kts 156°
2026-05-05 16:10 44.45216 0.75422 35947 ft 436 kts 156°
2026-05-05 16:11 44.39773 0.79191 35927 ft 436 kts 157°
2026-05-05 16:12 44.28879 0.86708 35952 ft 437 kts 157°
2026-05-05 16:13 44.15221 0.96091 35930 ft 438 kts 158°
2026-05-05 16:13 44.09750 0.99835 35943 ft 438 kts 158°
2026-05-05 16:14 43.98819 1.07294 35935 ft 437 kts 158°
2026-05-05 16:15 43.87898 1.14713 35925 ft 438 kts 158°
2026-05-05 16:16 43.76986 1.22100 35954 ft 435 kts 159°
2026-05-05 16:17 43.68838 1.27594 35968 ft 434 kts 159°
2026-05-05 16:18 43.60709 1.33058 35953 ft 433 kts 159°
2026-05-05 16:19 43.52603 1.38491 35946 ft 431 kts 159°
2026-05-05 16:19 43.44496 1.43907 35952 ft 432 kts 159°
2026-05-05 16:20 43.34589 1.50505 35950 ft 432 kts 160°
2026-05-05 16:22 43.21038 1.59492 35946 ft 432 kts 160°
2026-05-05 16:23 43.10192 1.66652 35963 ft 433 kts 161°
2026-05-05 16:23 43.02062 1.72002 35948 ft 432 kts 161°
2026-05-05 16:24 42.96665 1.75546 35936 ft 430 kts 162°
2026-05-05 16:25 42.88611 1.80819 35945 ft 426 kts 162°
2026-05-05 16:25 42.80624 1.86033 35930 ft 423 kts 162°
2026-05-05 16:26 42.70008 1.92941 35923 ft 422 kts 162°
2026-05-05 16:27 42.64558 1.95361 35914 ft 404 kts 179°
2026-05-05 16:27 42.59007 1.96394 35916 ft 403 kts 179°
2026-05-05 16:28 42.53458 1.97467 35909 ft 403 kts 179°
2026-05-05 16:28 42.47901 1.98570 35909 ft 404 kts 179°
2026-05-05 16:29 42.42333 1.99680 35903 ft 404 kts 179°
2026-05-05 16:29 42.36758 2.00781 35891 ft 404 kts 180°
2026-05-05 16:30 42.31196 2.01408 35893 ft 401 kts 183°
2026-05-05 16:30 42.25632 2.01901 35883 ft 401 kts 183°
2026-05-05 16:31 42.20052 2.02411 35880 ft 402 kts 183°
2026-05-05 16:31 42.14481 2.02938 35875 ft 401 kts 183°
2026-05-05 16:32 42.08923 2.03471 35887 ft 400 kts 183°
2026-05-05 16:32 42.03367 2.04004 35892 ft 400 kts 183°
2026-05-05 16:33 41.97830 2.04533 35891 ft 399 kts 183°
2026-05-05 16:33 41.92293 2.05060 35883 ft 399 kts 184°
2026-05-05 16:34 41.86753 2.05587 35887 ft 399 kts 184°
2026-05-05 16:34 41.81250 2.06110 35900 ft 400 kts 184°
2026-05-05 16:35 41.75709 2.06636 35900 ft 400 kts 183°
2026-05-05 16:35 41.70162 2.07162 35905 ft 399 kts 184°
2026-05-05 16:36 41.64616 2.07680 35911 ft 400 kts 184°
2026-05-05 16:36 41.59062 2.08191 35910 ft 400 kts 184°
2026-05-05 16:37 41.53508 2.08703 35896 ft 400 kts 184°
2026-05-05 16:37 41.47959 2.09215 35906 ft 400 kts 184°
2026-05-05 16:38 41.42410 2.09725 35918 ft 400 kts 184°
2026-05-05 16:38 41.36858 2.10235 35915 ft 400 kts 184°
2026-05-05 16:39 41.31299 2.10746 35879 ft 400 kts 184°
2026-05-05 16:39 41.25746 2.11534 35903 ft 402 kts 181°
2026-05-05 16:40 41.20202 2.12512 35912 ft 402 kts 181°
2026-05-05 16:40 41.14655 2.13480 35906 ft 402 kts 181°
2026-05-05 16:41 41.09111 2.14421 35886 ft 401 kts 182°
2026-05-05 16:41 41.03576 2.15348 35892 ft 401 kts 182°
2026-05-05 16:42 40.98035 2.16271 35889 ft 401 kts 182°
2026-05-05 16:42 40.92494 2.17194 35886 ft 402 kts 182°
2026-05-05 16:43 40.86939 2.18117 35869 ft 403 kts 182°
2026-05-05 16:43 40.81376 2.19040 35886 ft 403 kts 182°
2026-05-05 16:44 40.75800 2.19964 35886 ft 405 kts 182°
2026-05-05 16:44 40.70205 2.20889 35887 ft 406 kts 182°
2026-05-05 16:45 40.64629 2.21810 35886 ft 407 kts 182°
2026-05-05 16:45 40.59006 2.22738 35889 ft 408 kts 182°
2026-05-05 16:46 40.53378 2.23665 35884 ft 408 kts 182°
2026-05-05 16:46 40.47742 2.24592 35885 ft 408 kts 182°
2026-05-05 16:47 40.42110 2.25517 35883 ft 407 kts 182°
2026-05-05 16:47 40.36496 2.26783 35794 ft 412 kts 178°
2026-05-05 16:48 40.33685 2.27540 35516 ft 411 kts 178°
2026-05-05 16:48 40.30908 2.28300 35272 ft 406 kts 178°
2026-05-05 16:48 40.28146 2.29049 35006 ft 404 kts 178°
2026-05-05 16:48 40.25397 2.29779 34757 ft 402 kts 178°
2026-05-05 16:49 40.22659 2.30496 34471 ft 400 kts 178°
2026-05-05 16:49 40.19933 2.31203 34216 ft 399 kts 178°
2026-05-05 16:49 40.17214 2.31903 33606 ft 399 kts 178°
2026-05-05 16:49 40.14499 2.32601 33027 ft 398 kts 178°
2026-05-05 16:50 40.11784 2.33297 32439 ft 397 kts 178°
2026-05-05 16:50 40.09070 2.33992 31807 ft 398 kts 178°
2026-05-05 16:50 40.06354 2.34688 31205 ft 398 kts 178°
2026-05-05 16:50 40.03634 2.35384 30586 ft 399 kts 178°
2026-05-05 16:51 40.00902 2.36083 29950 ft 401 kts 179°
2026-05-05 16:51 39.98171 2.36783 29383 ft 398 kts 178°
2026-05-05 16:51 39.95467 2.37479 28876 ft 394 kts 178°
2026-05-05 16:51 39.92790 2.38166 28301 ft 392 kts 178°
2026-05-05 16:52 39.90106 2.38849 27592 ft 394 kts 178°
2026-05-05 16:52 39.87407 2.39535 26935 ft 395 kts 178°
2026-05-05 16:52 39.84715 2.40221 26389 ft 393 kts 178°
2026-05-05 16:52 39.82031 2.40906 25761 ft 394 kts 178°
2026-05-05 16:53 39.79340 2.41590 25134 ft 395 kts 178°
2026-05-05 16:53 39.76635 2.42278 24557 ft 393 kts 178°
2026-05-05 16:53 39.73967 2.42627 23975 ft 379 kts 192°
2026-05-05 16:53 39.71365 2.42183 23355 ft 376 kts 195°
2026-05-05 16:54 39.68804 2.41733 22745 ft 376 kts 194°
2026-05-05 16:54 39.66225 2.41313 22235 ft 372 kts 194°
2026-05-05 16:54 39.63667 2.40917 21737 ft 368 kts 194°
2026-05-05 16:54 39.61124 2.40529 21117 ft 369 kts 193°
2026-05-05 16:55 39.58576 2.40131 20475 ft 368 kts 195°
2026-05-05 16:55 39.56191 2.39143 19937 ft 355 kts 213°
2026-05-05 16:55 39.54181 2.37384 19440 ft 346 kts 224°
2026-05-05 16:55 39.52588 2.35098 18896 ft 341 kts 236°
2026-05-05 16:56 39.51258 2.32570 18388 ft 339 kts 238°
2026-05-05 16:56 39.49978 2.30004 17833 ft 338 kts 238°
2026-05-05 16:56 39.48702 2.27421 17007 ft 343 kts 238°
2026-05-05 16:56 39.47408 2.24815 16339 ft 344 kts 238°
2026-05-05 16:57 39.46110 2.22218 15672 ft 345 kts 237°
2026-05-05 16:57 39.44788 2.19593 14854 ft 350 kts 237°
2026-05-05 16:57 39.43453 2.16953 14220 ft 350 kts 237°
2026-05-05 16:57 39.42121 2.14330 13671 ft 347 kts 236°
2026-05-05 16:58 39.40801 2.11737 13016 ft 345 kts 236°
2026-05-05 16:58 39.39498 2.09180 12730 ft 334 kts 236°
2026-05-05 16:58 39.38235 2.06706 12439 ft 325 kts 237°
2026-05-05 16:58 39.37008 2.04304 12151 ft 316 kts 237°
2026-05-05 16:59 39.35810 2.01961 11865 ft 309 kts 237°
2026-05-05 16:59 39.34638 1.99669 11577 ft 302 kts 237°
2026-05-05 16:59 39.33508 1.97460 11247 ft 289 kts 237°
2026-05-05 16:59 39.32414 1.95328 10860 ft 280 kts 235°
2026-05-05 17:00 39.31053 1.93597 10474 ft 274 kts 214°
2026-05-05 17:00 39.29409 1.92421 10123 ft 267 kts 210°
2026-05-05 17:00 39.27759 1.91321 9617 ft 266 kts 210°
2026-05-05 17:00 39.26107 1.90230 9051 ft 267 kts 210°
2026-05-05 17:01 39.24450 1.89133 8476 ft 268 kts 210°
2026-05-05 17:01 39.22782 1.88025 8057 ft 270 kts 211°
2026-05-05 17:01 39.21120 1.86919 7791 ft 268 kts 211°
2026-05-05 17:01 39.19468 1.85816 7484 ft 266 kts 211°
2026-05-05 17:02 39.17825 1.84718 7176 ft 266 kts 211°
2026-05-05 17:02 39.16200 1.83632 6865 ft 266 kts 211°
2026-05-05 17:02 39.14560 1.82534 6549 ft 266 kts 211°
2026-05-05 17:02 39.12916 1.81435 6242 ft 266 kts 211°
2026-05-05 17:03 39.11278 1.80339 5942 ft 265 kts 211°
2026-05-05 17:03 39.09652 1.79251 5668 ft 262 kts 210°
2026-05-05 17:03 39.08036 1.78172 5390 ft 261 kts 210°
2026-05-05 17:03 39.06446 1.77111 5273 ft 253 kts 210°
2026-05-05 17:04 39.04925 1.76099 5171 ft 239 kts 210°
2026-05-05 17:04 39.03498 1.75142 5059 ft 224 kts 213°
2026-05-05 17:04 39.02449 1.73789 4914 ft 211 kts 244°
2026-05-05 17:04 39.01788 1.72135 4809 ft 207 kts 242°
2026-05-05 17:05 39.01076 1.70526 4679 ft 207 kts 242°
2026-05-05 17:05 39.00372 1.68893 4570 ft 210 kts 242°
2026-05-05 17:05 38.99671 1.67229 4446 ft 212 kts 243°
2026-05-05 17:05 38.98974 1.65559 4325 ft 212 kts 243°
2026-05-05 17:06 38.98287 1.63904 4264 ft 209 kts 243°
2026-05-05 17:06 38.97610 1.62272 4033 ft 205 kts 243°
2026-05-05 17:06 38.97168 1.61206 3838 ft 203 kts 243°
2026-05-05 17:06 38.96511 1.59621 3572 ft 199 kts 243°
2026-05-05 17:07 38.95868 1.58071 3326 ft 195 kts 243°
2026-05-05 17:07 38.95240 1.56554 3085 ft 190 kts 243°
2026-05-05 17:07 38.94627 1.55074 2828 ft 186 kts 243°
2026-05-05 17:07 38.94025 1.53621 2575 ft 183 kts 243°
2026-05-05 17:08 38.93434 1.52192 2346 ft 179 kts 240°
2026-05-05 17:08 38.92865 1.50816 2109 ft 168 kts 240°
2026-05-05 17:08 38.92334 1.49533 1884 ft 160 kts 239°
2026-05-05 17:08 38.91817 1.48283 1722 ft 155 kts 239°
2026-05-05 17:09 38.91319 1.47079 1493 ft 152 kts 240°
2026-05-05 17:09 38.90823 1.45878 1273 ft 151 kts 240°
2026-05-05 17:09 38.90339 1.44707 1098 ft 148 kts 240°
2026-05-05 17:09 38.89860 1.43548 887 ft 145 kts 240°
2026-05-05 17:10 38.89385 1.42392 721 ft 147 kts 241°
2026-05-05 17:10 38.88910 1.41229 507 ft 147 kts 239°
2026-05-05 17:10 38.88429 1.40076 315 ft 146 kts 241°
2026-05-05 17:10 38.87955 1.38928 96 ft 144 kts 240°
2026-05-05 17:11 38.87506 1.37852 12 ft 127 kts 242°
2026-05-05 17:11 38.87158 1.37006 9 ft 86 kts 242°
2026-05-05 17:11 38.86949 1.36502 7 ft 39 kts 242°
2026-05-05 17:11 38.86884 1.36329 4 ft 12 kts 262°
2026-05-05 17:12 38.86930 1.36252 5 ft 11 kts 332°
2026-05-05 17:12 38.86992 1.36210 7 ft 7 kts 339°
2026-05-05 17:12 38.87029 1.36241 7 ft 7 kts 58°
2026-05-05 17:12 38.87055 1.36303 7 ft 10 kts 61°
2026-05-05 17:13 38.87102 1.36414 7 ft 17 kts 62°
2026-05-05 17:13 38.87156 1.36546 7 ft 16 kts 62°
2026-05-05 17:13 38.87207 1.36672 8 ft 16 kts 62°
2026-05-05 17:13 38.87254 1.36787 8 ft 11 kts 63°
2026-05-05 17:14 38.87290 1.36857 8 ft 8 kts 27°
2026-05-05 17:14 38.87341 1.36837 8 ft 8 kts 334°
2026-05-05 17:14 38.87389 1.36806 9 ft 8 kts 333°
2026-05-05 17:14 38.87437 1.36804 7 ft 7 kts 43°
2026-05-05 17:15 38.87462 1.36860 7 ft 7 kts 62°
2026-05-05 17:15 38.87485 1.36915 7 ft 7 kts 62°
2026-05-05 17:15 38.87513 1.36947 7 ft 5 kts 358°
2026-05-05 17:15 38.87546 1.36929 7 ft 4 kts 331°
2026-05-05 17:16 38.87560 1.36920 9 ft 0 kts 332°